Dewpoint
39 39 39 40 40 39 39 39 39 40 41 42 44 46 48 51 51 51 50 51 58 61
38 39 39 40 40 40 40 39 39 40 40 41 42 43 46 48 48 47 48 48 49 51
36 37 38 39 38 40 40 40 40 40 41 40 41 41 42 43 48 45 45 46 47 47
35 34 35 36 36 38 39 40 39 40 40 40 40 41 41 42 44 43 43 43 43 46
33 33 34 35 35 37 36 38 38 39 39 38 39 41 40 41 42 41 40 41 42 43
30 31 32 33 35 35 36 36 36 36 37 38 38 38 39 40 40 39 40 39 39 41
29 30 31 32 33 34 34 34 34 35 35 36 36 36 37 38 37 37 36 37 39 40
29 30 30 32 33 32 33 33 34 33 33 34 34 34 34 35 35 34 35 36 37 39
28 29 30 31 32 32 33 32 32 31 31 31 32 32 33 34 34 34 34 35 35 37
29 30 30 30 32 31 31 31 30 30 30 30 30 31 33 34 34 34 33 34 34 34
30 29 30 31 30 30 30 29 30 30 31 31 32 33 34 33 33 34 34 32 32 33
29 29 31 30 30 29 29 29 30 30 31 32 33 33 33 34 33 33 33 33 34 34
29 30 29 30 29 29 29 30 31 32 32 32 31 31 33 33 33 32 32 33 34 34
30 29 30 29 29 29 30 31 31 29 30 32 31 31 32 32 32 32 31 32 33 34
Wind_Speed
11 10 10 12 14 15 16 18 22 23 22 23 24 20 15 13 17 20 24 25 27 26
9 10 11 12 10 11 12 16 20 20 21 22 22 22 21 15 14 12 15 22 23 24
10 11 10 12 15 14 13 14 16 18 19 22 21 23 24 22 15 15 13 17 24 22
9 11 12 13 15 15 15 15 15 16 16 18 21 21 22 23 20 24 21 17 20 21
13 14 16 16 17 16 18 16 17 17 17 18 19 18 23 25 20 22 26 25 20 21
15 16 18 18 17 17 17 18 17 20 21 21 19 19 19 19 21 23 24 26 27 24
16 18 18 18 18 19 20 20 22 21 22 22 24 23 18 19 23 22 25 27 28 26
16 16 17 18 18 21 20 21 21 23 24 23 23 20 28 25 26 27 26 24 25 22
17 16 16 16 20 19 21 23 23 23 24 24 21 25 26 27 28 27 25 25 24 24
15 16 17 19 18 21 23 23 26 23 22 24 24 27 30 30 26 26 24 25 24 23
14 16 18 17 21 21 21 23 23 23 24 25 23 28 29 31 27 26 25 26 25 22
15 17 16 20 21 21 21 21 22 23 24 25 25 27 29 29 27 26 26 23 22 22
13 14 17 18 19 18 19 20 21 24 23 24 24 27 29 30 25 27 26 25 22 20
13 15 14 16 17 19 20 20 22 23 23 22 24 25 28 30 28 27 28 25 23 18
Wind_Direction
26 19 6 352 350 350 346 341 340 339 341 343 339 340 328 334 335 340 336 343 327 259
18 12 355 343 337 331 332 338 339 335 337 337 335 331 331 328 327 344 349 346 340 323
14 7 350 341 337 329 321 323 329 334 333 334 333 330 332 332 322 338 340 345 332 342
11 3 348 343 337 331 325 315 319 318 322 329 332 330 329 326 325 335 337 336 327 326
10 359 353 343 337 331 327 322 317 316 317 323 324 322 326 325 334 334 325 323 325 312
8 0 353 343 337 333 330 332 333 333 328 319 318 321 321 318 329 324 321 319 311 313
6 359 350 342 337 339 339 339 336 334 334 334 328 321 313 320 318 320 316 316 314 314
5 356 344 341 339 339 341 337 340 337 334 332 331 329 335 326 323 318 315 311 303 299
358 345 339 342 342 339 344 341 339 337 334 331 329 325 321 320 318 314 310 307 313 309
345 345 348 344 352 352 342 339 334 332 333 332 329 328 326 321 320 313 309 310 311 312
355 355 348 4 354 349 342 334 330 330 331 328 326 325 326 329 324 318 312 315 311 308
3 356 9 1 350 341 335 333 330 328 327 326 332 338 335 331 328 319 314 311 312 312
5 12 8 355 342 335 331 332 334 335 339 332 336 335 332 329 325 322 320 313 305 297
27 15 3 343 338 337 337 339 347 343 340 339 339 338 334 332 331 324 318 312 304 295